• In Deutschland
  • Länderverzeichnis
  • Für 7 Tage
  • Wassertemperatur
  • Satellitenkarten
  • Wetterkarte
  • Widgets
  • user-avatar
    Anmelden

    Stündliche Wetter Mykhniv

    Heute, 20 August, Montag

    Zeit Temperatur Niederschläge Wind Luftdruck Luftfeuchtigkeit
    00:00 +18°C° 0 mm 0 m/S 743 mmHg 79%
    01:00 +18°C° 0 mm 0 m/S 743 mmHg 81%
    02:00 +17°C° 0 mm 0 m/S 742 mmHg 82%
    03:00 +17°C° 0 mm 0 m/S 742 mmHg 83%
    04:00 +17°C° 0 mm 0 m/S 742 mmHg 83%
    05:00 +17°C° 0 mm 0 m/S 742 mmHg 84%
    06:00 +18°C° 0 mm 0 m/S 742 mmHg 79%
    07:00 +20°C° 0 mm 0 m/S 742 mmHg 75%
    08:00 +21°C° 0 mm 0 m/S 742 mmHg 70%
    09:00 +23°C° 0 mm 0 m/S 742 mmHg 65%
    10:00 +24°C° 0 mm 0 m/S 742 mmHg 59%
    11:00 +28°C° 0 mm 1 m/S 742 mmHg 54%
    12:00 +28°C° 0 mm 1 m/S 742 mmHg 52%
    13:00 +28°C° 0 mm 1 m/S 742 mmHg 50%
    14:00 +29°C° 0 mm 1 m/S 741 mmHg 48%
    15:00 +28°C° 0 mm 1 m/S 741 mmHg 49%
    16:00 +28°C° 0 mm 1 m/S 741 mmHg 50%
    17:00 +28°C° 0 mm 1 m/S 741 mmHg 52%
    18:00 +27°C° 0 mm 1 m/S 740 mmHg 56%
    19:00 +25°C° 0 mm 1 m/S 740 mmHg 60%
    20:00 +23°C° 0 mm 1 m/S 740 mmHg 64%
    21:00 +23°C° 0 mm 1 m/S 740 mmHg 65%
    22:00 +22°C° 0 mm 1 m/S 740 mmHg 67%
    23:00 +21°C° 0 mm 2 m/S 740 mmHg 69%

    Morgen, 21 August, Dienstag

    Zeit Temperatur Niederschläge Wind Luftdruck Luftfeuchtigkeit
    00:00 +20°C° 0 mm 2 m/S 740 mmHg 71%
    01:00 +20°C° 0 mm 2 m/S 740 mmHg 73%
    02:00 +20°C° 0 mm 2 m/S 739 mmHg 74%
    03:00 +19°C° 0 mm 2 m/S 739 mmHg 76%
    04:00 +19°C° 0 mm 2 m/S 739 mmHg 77%
    05:00 +19°C° 0 mm 2 m/S 739 mmHg 79%
    06:00 +20°C° 0 mm 2 m/S 740 mmHg 79%
    07:00 +21°C° 0 mm 3 m/S 740 mmHg 78%
    08:00 +22°C° 0 mm 3 m/S 740 mmHg 78%
    09:00 +24°C° 0 mm 3 m/S 741 mmHg 73%
    10:00 +25°C° 0 mm 4 m/S 741 mmHg 69%
    11:00 +26°C° 0 mm 4 m/S 741 mmHg 64%
    12:00 +27°C° 0 mm 5 m/S 741 mmHg 62%
    13:00 +27°C° 0 mm 5 m/S 741 mmHg 60%
    14:00 +27°C° 0 mm 6 m/S 741 mmHg 58%
    15:00 +27°C° 0 mm 5 m/S 741 mmHg 59%
    16:00 +26°C° 0 mm 5 m/S 741 mmHg 61%
    17:00 +26°C° 0 mm 5 m/S 741 mmHg 62%
    18:00 +23°C° 0 mm 4 m/S 741 mmHg 66%
    19:00 +21°C° 0 mm 3 m/S 741 mmHg 70%
    20:00 +19°C° 0 mm 3 m/S 742 mmHg 74%
    21:00 +18°C° 0 mm 2 m/S 742 mmHg 74%
    22:00 +18°C° 0 mm 2 m/S 742 mmHg 74%
    23:00 +17°C° 0 mm 2 m/S 743 mmHg 74%

    übermorgen, 22 August, Mittwoch

    Zeit Temperatur Niederschläge Wind Luftdruck Luftfeuchtigkeit
    00:00 +16°C° 0 mm 2 m/S 743 mmHg 75%
    01:00 +16°C° 0 mm 2 m/S 743 mmHg 76%
    02:00 +15°C° 0 mm 2 m/S 743 mmHg 78%
    03:00 +15°C° 0 mm 1 m/S 743 mmHg 80%
    04:00 +15°C° 0 mm 1 m/S 743 mmHg 83%
    05:00 +14°C° 0 mm 1 m/S 743 mmHg 86%
    06:00 +16°C° 0 mm 1 m/S 744 mmHg 82%
    07:00 +18°C° 0 mm 1 m/S 744 mmHg 78%
    08:00 +18°C° 0 mm 2 m/S 745 mmHg 74%
    09:00 +20°C° 0 mm 2 m/S 745 mmHg 69%
    10:00 +21°C° 0 mm 2 m/S 745 mmHg 63%
    11:00 +23°C° 0 mm 2 m/S 745 mmHg 58%
    12:00 +24°C° 0 mm 2 m/S 745 mmHg 56%
    13:00 +24°C° 0 mm 2 m/S 745 mmHg 54%
    14:00 +25°C° 0 mm 2 m/S 744 mmHg 52%
    15:00 +24°C° 0 mm 2 m/S 744 mmHg 53%
    16:00 +24°C° 0 mm 2 m/S 744 mmHg 55%
    17:00 +24°C° 0 mm 2 m/S 744 mmHg 57%
    18:00 +21°C° 0 mm 2 m/S 744 mmHg 62%
    19:00 +20°C° 0 mm 2 m/S 744 mmHg 66%
    20:00 +18°C° 0 mm 2 m/S 744 mmHg 71%
    21:00 +18°C° 0 mm 2 m/S 744 mmHg 72%
    22:00 +17°C° 0 mm 2 m/S 744 mmHg 73%
    23:00 +16°C° 0 mm 2 m/S 744 mmHg 74%

    23 August, Donnerstag

    Zeit Temperatur Niederschläge Wind Luftdruck Luftfeuchtigkeit
    00:00 +16°C° 0 mm 2 m/S 744 mmHg 74%
    01:00 +15°C° 0 mm 2 m/S 744 mmHg 75%
    02:00 +15°C° 0 mm 2 m/S 744 mmHg 75%
    03:00 +15°C° 0 mm 2 m/S 744 mmHg 76%
    04:00 +14°C° 0 mm 2 m/S 744 mmHg 76%
    05:00 +14°C° 0 mm 2 m/S 744 mmHg 77%
    06:00 +14°C° 0 mm 3 m/S 744 mmHg 74%
    07:00 +17°C° 0 mm 3 m/S 744 mmHg 72%
    08:00 +18°C° 0 mm 4 m/S 744 mmHg 69%
    09:00 +20°C° 0 mm 4 m/S 744 mmHg 64%
    10:00 +21°C° 0 mm 4 m/S 744 mmHg 59%
    11:00 +23°C° 0 mm 5 m/S 744 mmHg 53%
    12:00 +25°C° 0 mm 5 m/S 743 mmHg 52%
    13:00 +25°C° 0 mm 5 m/S 743 mmHg 51%
    14:00 +26°C° 0 mm 4 m/S 743 mmHg 49%
    15:00 +26°C° 0 mm 4 m/S 742 mmHg 51%
    16:00 +25°C° 0 mm 4 m/S 742 mmHg 53%
    17:00 +25°C° 0 mm 4 m/S 742 mmHg 55%
    18:00 +22°C° 0 mm 3 m/S 742 mmHg 60%
    19:00 +20°C° 0 mm 3 m/S 742 mmHg 65%
    20:00 +19°C° 0 mm 3 m/S 741 mmHg 69%
    21:00 +18°C° 0 mm 3 m/S 741 mmHg 69%
    22:00 +18°C° 0 mm 3 m/S 741 mmHg 69%
    23:00 +17°C° 0 mm 3 m/S 741 mmHg 69%

    24 August, Freitag

    Zeit Temperatur Niederschläge Wind Luftdruck Luftfeuchtigkeit
    00:00 +17°C° 0 mm 3 m/S 741 mmHg 68%
    01:00 +16°C° 0 mm 3 m/S 741 mmHg 67%
    02:00 +16°C° 0 mm 3 m/S 741 mmHg 67%
    03:00 +14°C° 0 mm 3 m/S 740 mmHg 67%
    04:00 +14°C° 0 mm 3 m/S 740 mmHg 67%
    05:00 +14°C° 0 mm 3 m/S 740 mmHg 67%
    06:00 +15°C° 0 mm 4 m/S 740 mmHg 65%
    07:00 +17°C° 0 mm 4 m/S 740 mmHg 63%
    08:00 +19°C° 0 mm 4 m/S 740 mmHg 61%
    09:00 +21°C° 0 mm 4 m/S 740 mmHg 57%
    10:00 +23°C° 0 mm 4 m/S 740 mmHg 53%
    11:00 +26°C° 0 mm 4 m/S 740 mmHg 49%
    12:00 +27°C° 0 mm 4 m/S 739 mmHg 47%
    13:00 +27°C° 0 mm 5 m/S 739 mmHg 45%
    14:00 +28°C° 0 mm 5 m/S 739 mmHg 43%
    15:00 +28°C° 0 mm 4 m/S 739 mmHg 46%
    16:00 +28°C° 0 mm 3 m/S 738 mmHg 49%
    17:00 +28°C° 0 mm 3 m/S 738 mmHg 52%
    18:00 +26°C° 0 mm 3 m/S 738 mmHg 56%
    19:00 +24°C° 0 mm 3 m/S 738 mmHg 60%
    20:00 +21°C° 0 mm 3 m/S 738 mmHg 64%
    21:00 +20°C° 0 mm 3 m/S 738 mmHg 64%
    22:00 +20°C° 0 mm 3 m/S 738 mmHg 64%
    23:00 +19°C° 0 mm 4 m/S 737 mmHg 64%

    25 August, Samstag

    Zeit Temperatur Niederschläge Wind Luftdruck Luftfeuchtigkeit
    00:00 +19°C° 0 mm 3 m/S 737 mmHg 62%
    01:00 +18°C° 0 mm 3 m/S 737 mmHg 61%
    02:00 +18°C° 0 mm 3 m/S 737 mmHg 60%
    03:00 +18°C° 0 mm 3 m/S 737 mmHg 61%
    04:00 +17°C° 0 mm 3 m/S 737 mmHg 61%
    05:00 +17°C° 0 mm 3 m/S 737 mmHg 61%
    06:00 +18°C° 0 mm 3 m/S 737 mmHg 61%
    07:00 +20°C° 0 mm 4 m/S 737 mmHg 60%
    08:00 +21°C° 0 mm 4 m/S 737 mmHg 59%
    09:00 +23°C° 0 mm 4 m/S 737 mmHg 56%
    10:00 +26°C° 0 mm 4 m/S 737 mmHg 52%
    11:00 +28°C° 0 mm 4 m/S 737 mmHg 48%
    12:00 +29°C° 0 mm 5 m/S 736 mmHg 46%
    13:00 +30°C° 0 mm 5 m/S 736 mmHg 44%
    14:00 +30°C° 0 mm 5 m/S 736 mmHg 41%
    15:00 +30°C° 0 mm 4 m/S 736 mmHg 45%
    16:00 +30°C° 0 mm 3 m/S 736 mmHg 48%
    17:00 +30°C° 0 mm 3 m/S 735 mmHg 51%
    18:00 +28°C° 0 mm 3 m/S 735 mmHg 54%
    19:00 +26°C° 0 mm 2 m/S 735 mmHg 57%
    20:00 +24°C° 0 mm 2 m/S 735 mmHg 61%
    21:00 +23°C° 0 mm 2 m/S 735 mmHg 61%
    22:00 +21°C° 0 mm 3 m/S 735 mmHg 62%
    23:00 +21°C° 0 mm 3 m/S 735 mmHg 63%
    Mehr zeigen